Wind_Speed
9 10 11 11 12 13 14 14 15 15 15 15 16 16 16 16 16 15 15 15 15 15 15 15 15 15 14 14 14 15 15 16 16 17 18 18 18 19
11 12 12 13 13 14 14 15 15 15 16 17 17 18 17 16 16 16 16 16 16 15 15 15 15 15 15 15 15 15 15 16 17 18 18 19 20 20
12 13 13 14 14 15 15 16 16 16 17 17 18 18 17 17 17 17 17 17 17 17 16 16 17 17 16 17 16 16 16 17 18 19 19 20 21 21
13 13 14 15 16 16 17 17 17 17 18 18 18 18 18 18 18 18 18 18 18 17 18 18 18 18 18 18 18 18 18 18 19 19 19 20 20 21
14 15 15 16 16 17 18 18 19 19 19 19 19 19 19 19 19 19 19 19 19 19 19 19 19 19 20 19 19 19 19 20 20 19 20 21 22 22
15 16 16 17 18 18 18 19 19 20 20 20 21 21 20 21 20 20 20 21 20 20 20 20 20 20 20 19 20 20 21 21 22 22 22 22 22 23
16 17 18 19 19 19 20 20 20 21 21 22 22 22 22 22 22 22 22 22 21 21 21 21 21 21 21 21 21 21 22 23 23 24 24 24 24 24
18 18 19 20 20 21 21 21 22 22 22 23 23 23 23 23 23 23 22 22 22 21 21 21 21 21 22 23 23 23 23 23 24 25 25 25 25 25
19 20 20 21 21 22 22 23 24 24 24 23 23 23 23 23 23 23 23 23 23 22 22 22 22 22 22 23 24 24 24 24 24 24 25 25 26 26
21 22 22 23 23 24 24 25 25 25 25 25 25 24 24 24 24 24 24 24 24 23 24 23 23 23 23 23 24 24 25 24 24 24 25 26 26 26
23 24 24 25 25 25 25 25 26 26 27 26 26 25 25 25 25 26 25 25 24 24 24 24 24 24 24 25 25 26 25 25 25 25 26 27 27 28
25 25 25 25 26 26 26 26 27 27 27 27 27 26 26 26 26 26 26 25 25 25 25 25 25 25 25 25 26 27 27 26 27 27 27 28 29 29
26 27 27 27 28 28 28 28 28 28 28 28 28 27 27 28 27 27 26 26 26 26 27 26 26 26 25 25 26 26 27 27 27 28 29 29 30 30
29 30 30 30 30 30 29 29 29 29 29 29 28 28 28 28 28 28 28 28 28 27 27 27 27 27 26 26 26 26 27 28 28 29 30 30 30 31
32 32 32 32 32 32 31 31 30 31 31 30 30 29 29 29 29 30 29 29 28 28 29 28 28 28 28 28 27 28 28 29 30 32 32 31 31 31
33 33 33 33 33 33 32 33 32 32 32 32 31 30 30 30 30 30 30 30 29 29 30 30 30 30 29 30 30 30 31 31 31 32 32 32 31 31
35 34 34 35 34 34 33 33 34 34 34 34 33 33 32 32 32 32 32 31 31 31 30 31 31 32 31 31 31 32 32 32 31 31 32 32 32 33
36 35 35 35 35 35 35 35 36 36 36 35 35 35 34 33 33 33 33 32 32 32 32 31 31 31 31 31 32 32 32 32 32 32 33 33 33 33
37 37 36 36 36 36 36 36 36 36 36 36 36 36 35 35 34 34 34 33 33 33 33 32 32 32 32 31 32 33 33 34 34 34 34 34 34 35
38 38 37 36 36 36 36 37 37 37 37 37 36 37 36 35 34 34 34 34 34 34 34 34 34 34 33 33 33 33 34 34 35 35 35 35 35 35
40 39 37 36 36 36 37 37 38 38 38 38 36 36 36 36 35 34 35 35 35 34 34 34 34 34 34 35 34 34 35 35 36 36 36 36 35 35
41 40 39 39 38 37 38 38 38 38 38 38 38 37 36 36 36 36 36 36 35 35 35 34 34 34 35 35 35 35 35 35 36 37 37 37 36 35
41 40 40 39 39 39 39 39 39 39 38 38 38 37 37 36 36 36 36 36 36 35 34 34 34 35 35 35 36 36 35 35 36 36 36 36 36 35
Wind_Direction
338 337 335 333 332 331 330 330 328 325 324 324 322 319 315 313 310 310 308 306 303 302 301 299 297 294 291 290 289 287 283 278 273 273 273 274 275 275
331 332 332 331 330 328 328 327 326 324 322 319 318 315 313 312 310 310 307 305 304 303 302 301 299 296 293 295 292 289 288 283 278 276 278 276 276 276
326 327 327 328 329 329 327 325 324 323 322 319 318 317 314 310 308 307 307 305 303 301 298 297 298 296 292 292 290 288 287 287 284 281 279 279 278 277
324 326 327 328 328 326 324 322 322 322 321 319 316 314 313 310 306 305 304 304 303 300 296 296 295 292 290 290 287 286 285 284 284 283 282 281 281 281
325 326 326 325 326 325 323 322 321 320 319 317 316 313 312 309 307 305 303 301 301 300 297 294 293 291 289 288 287 286 285 284 282 283 283 283 282 281
320 321 322 323 324 323 322 322 320 320 319 317 315 313 311 308 307 305 303 301 299 298 297 295 293 292 291 289 287 287 285 284 282 283 284 285 284 283
317 317 318 319 320 320 320 321 321 320 319 317 315 312 310 307 306 305 304 303 299 298 297 295 292 291 291 289 287 287 287 284 282 283 285 285 285 284
314 315 315 316 316 317 317 318 319 318 317 315 313 311 311 309 307 307 306 304 301 297 296 295 291 291 291 289 287 287 287 285 283 282 283 283 283 284
312 312 312 314 313 314 315 315 315 315 315 314 314 312 311 310 309 307 305 305 303 300 298 296 294 293 292 290 288 287 288 287 286 284 283 283 284 285
310 310 311 313 313 314 314 314 313 314 314 313 313 312 310 308 308 308 305 301 300 299 297 298 295 293 293 292 291 289 287 286 286 285 285 285 286 285
308 309 309 311 312 312 313 313 313 314 315 313 312 311 310 309 308 306 305 302 299 297 296 296 296 294 292 292 291 290 289 286 286 286 287 287 287 286
306 307 307 308 310 311 311 311 311 312 313 312 311 311 311 310 309 307 305 302 300 298 296 294 294 295 292 291 292 291 289 288 287 286 286 286 287 286
304 305 305 305 306 307 307 307 308 309 310 310 309 309 309 309 309 308 306 303 300 298 296 295 294 294 293 291 291 291 290 289 289 289 288 287 287 287
301 302 302 302 302 303 303 303 305 307 308 309 308 307 307 307 307 308 306 304 302 300 297 296 295 293 292 292 291 290 290 290 290 290 289 288 288 288
298 300 301 301 300 301 301 301 302 304 307 307 306 304 304 304 305 306 306 305 303 301 299 298 295 293 293 293 291 289 290 291 292 292 290 289 289 289
296 297 297 298 299 300 300 299 301 303 304 306 305 303 302 302 303 304 305 305 303 302 299 298 296 295 294 294 292 291 290 291 292 292 291 291 289 289
297 296 296 296 297 298 299 299 300 302 303 303 302 301 300 301 301 302 302 302 301 300 298 297 295 294 294 294 293 291 291 290 291 291 290 290 289 288
296 296 296 295 295 295 296 296 298 299 301 301 301 301 299 299 299 299 299 299 299 298 296 295 295 294 294 295 295 293 292 291 291 292 290 290 289 287
296 295 295 295 294 294 295 296 297 297 298 299 300 300 298 296 296 297 297 297 297 295 294 293 294 294 293 294 294 293 293 293 292 292 292 291 290 288
295 295 295 295 294 294 295 297 297 296 296 298 298 298 297 295 295 294 295 295 295 293 293 293 292 293 294 294 292 293 293 293 293 292 291 290 290 290
293 293 293 293 293 293 295 296 296 295 295 296 296 297 297 296 294 293 293 294 294 292 292 292 292 292 293 294 294 293 292 292 292 291 291 291 289 289
291 291 292 292 293 294 295 296 296 295 295 295 294 294 295 295 294 293 292 293 293 292 292 292 292 293 294 295 295 294 293 292 291 290 290 290 290 290
290 291 291 291 292 294 294 294 295 294 294 294 294 293 294 294 293 293 292 291 291 291 290 290 291 293 294 294 294 294 293 293 293 291 290 290 290 289
Height
5879 5877 5876 5874 5872 5870 5868 5866 5864 5862 5860 5857 5855 5852 5850 5848 5846 5844 5842 5840 5839 5837 5835 5834 5833 5832 5830 5829 5828 5828 5827 5826 5826 5826 5826 5826 5826 5826
5878 5876 5874 5872 5870 5868 5866 5864 5862 5860 5857 5855 5852 5850 5847 5845 5842 5840 5839 5837 5835 5833 5832 5830 5829 5828 5827 5825 5824 5824 5823 5822 5822 5821 5821 5820 5820 5820
5876 5874 5872 5870 5868 5866 5863 5861 5859 5856 5854 5851 5849 5846 5844 5841 5839 5837 5835 5833 5831 5829 5828 5826 5825 5824 5822 5821 5820 5819 5818 5818 5817 5816 5815 5815 5815 5815
5874 5872 5870 5868 5865 5863 5861 5858 5856 5853 5851 5848 5845 5843 5840 5838 5835 5833 5831 5829 5827 5825 5823 5822 5820 5819 5818 5816 5815 5814 5814 5813 5812 5811 5810 5810 5809 5809
5871 5870 5867 5865 5863 5860 5858 5855 5852 5850 5847 5844 5841 5838 5836 5833 5831 5829 5826 5824 5822 5820 5818 5816 5815 5814 5812 5811 5810 5809 5808 5807 5807 5805 5805 5804 5803 5802
5869 5867 5865 5862 5859 5857 5854 5851 5848 5846 5843 5840 5837 5834 5831 5829 5826 5824 5822 5819 5817 5815 5813 5811 5809 5808 5807 5805 5804 5803 5802 5801 5800 5799 5798 5798 5797 5796
5866 5863 5861 5858 5856 5853 5850 5847 5844 5841 5838 5835 5832 5830 5827 5824 5821 5819 5816 5814 5811 5810 5807 5805 5804 5802 5800 5799 5798 5796 5795 5794 5793 5792 5791 5790 5790 5789
5862 5859 5857 5854 5851 5848 5846 5843 5840 5837 5834 5831 5827 5824 5821 5819 5816 5813 5811 5808 5806 5804 5802 5800 5798 5796 5794 5792 5791 5790 5788 5787 5786 5785 5784 5783 5782 5781
5857 5855 5852 5849 5846 5843 5841 5838 5834 5831 5829 5826 5822 5819 5816 5813 5810 5807 5805 5802 5800 5798 5795 5793 5791 5789 5787 5786 5784 5783 5781 5780 5779 5777 5776 5775 5774 5773
5852 5850 5847 5844 5841 5838 5835 5832 5829 5826 5823 5820 5817 5813 5810 5807 5804 5801 5798 5796 5794 5791 5789 5787 5785 5783 5780 5778 5776 5775 5773 5772 5771 5769 5768 5767 5766 5765
5847 5844 5841 5839 5836 5833 5830 5827 5823 5820 5817 5814 5811 5807 5804 5801 5798 5795 5792 5789 5787 5784 5782 5780 5778 5776 5774 5772 5769 5767 5766 5764 5763 5761 5760 5759 5757 5756
5841 5838 5836 5833 5830 5827 5824 5821 5818 5814 5811 5807 5804 5801 5798 5794 5791 5788 5785 5782 5779 5777 5774 5772 5770 5768 5766 5764 5762 5759 5757 5756 5754 5753 5751 5749 5748 5747
5834 5832 5829 5826 5823 5820 5817 5814 5811 5808 5804 5801 5797 5794 5791 5788 5784 5781 5778 5775 5772 5769 5767 5764 5762 5760 5758 5756 5754 5751 5749 5747 5745 5744 5742 5740 5738 5737
5827 5825 5822 5819 5816 5813 5810 5807 5804 5801 5797 5794 5790 5787 5784 5781 5778 5774 5771 5768 5764 5762 5759 5756 5754 5751 5749 5747 5745 5743 5741 5738 5736 5735 5732 5730 5728 5726
5819 5817 5814 5811 5808 5805 5802 5799 5796 5793 5789 5786 5783 5779 5776 5773 5770 5767 5763 5760 5757 5754 5751 5748 5745 5743 5741 5739 5737 5735 5732 5730 5727 5725 5723 5720 5719 5717
5810 5808 5805 5803 5800 5797 5794 5791 5788 5785 5781 5778 5775 5771 5768 5765 5761 5758 5755 5752 5749 5746 5743 5740 5737 5734 5732 5730 5727 5725 5723 5721 5718 5715 5713 5711 5709 5707
5801 5799 5796 5794 5791 5788 5785 5782 5779 5775 5772 5769 5766 5763 5759 5756 5753 5750 5746 5743 5740 5738 5735 5731 5728 5725 5723 5721 5718 5715 5713 5710 5708 5706 5704 5702 5699 5697
5792 5790 5787 5784 5781 5779 5775 5772 5769 5766 5763 5760 5757 5753 5750 5747 5744 5740 5737 5734 5731 5728 5725 5722 5719 5716 5714 5712 5709 5706 5703 5701 5699 5696 5694 5691 5689 5687
5782 5780 5777 5774 5771 5769 5765 5762 5760 5756 5753 5750 5747 5743 5740 5737 5733 5730 5727 5724 5722 5719 5716 5713 5710 5707 5705 5703 5700 5696 5694 5691 5689 5686 5683 5681 5679 5677
5772 5769 5766 5764 5761 5758 5755 5752 5749 5746 5742 5739 5736 5733 5729 5726 5723 5720 5717 5714 5711 5709 5706 5703 5700 5697 5695 5692 5690 5687 5684 5682 5679 5676 5674 5671 5668 5666
5761 5758 5755 5753 5750 5747 5744 5741 5738 5735 5732 5729 5726 5723 5719 5716 5713 5710 5707 5704 5701 5698 5696 5693 5690 5687 5684 5682 5679 5677 5675 5671 5669 5666 5663 5661 5658 5656
5749 5746 5744 5741 5739 5736 5733 5730 5727 5724 5721 5718 5715 5712 5709 5706 5702 5700 5697 5694 5691 5688 5686 5683 5680 5677 5674 5672 5669 5666 5664 5661 5657 5655 5652 5650 5647 5645
5737 5734 5732 5729 5727 5725 5722 5719 5716 5712 5710 5707 5704 5701 5698 5695 5692 5689 5686 5683 5680 5678 5675 5672 5670 5667 5664 5661 5659 5656 5653 5650 5647 5644 5642 5639 5636 5634